sat.trackr.live / text

‹ back to catalog

STARLINK-32655

NORAD 62202 · 2024-229L

PAYLOAD ACTIVE UNKNOWN

§ Identity

Operator
Country
US
Launch date
2024-12-04
Launch site
AFETR
Launch vehicle
Mass (kg)
RCS (m²)

Purposes: comms

External: N2YO · Heavens-Above · Gunter

§ Orbital elements

Epoch: 2026-05-25T05:24:40.070592Z

Period
94.27 min
Inclination
42.9986°
Eccentricity
0.0001362
Mean motion
15.27591195 rev/d
Perigee alt
482.1 km
Apogee alt
484.0 km
Semi-major
6,861.2 km
B*
7.8948e-4
RAAN
198.7249°
Arg perigee
266.8754°
Mean anomaly
93.1942°
Rev number
8,226

§ Raw data

STARLINK-326551 62202U 24229L   26145.22546378  .00021534  00000+0  78948-3 0  99992 62202  42.9986 198.7249 0001362 266.8754  93.1942 15.27591195 82263

JSON: /api/v1/satellites/62202 · /tle

For live sub-satellite position, see the globe view (requires WebGL).

§ Visibility from observer

Set your observer location to see the next 7 days of passes ≥ 10°. The values pass through the URL so the page stays shareable.

No JS? Fill the form by hand. The geolocation button needs JavaScript.